Location: Alexander
(41.3564°N, 81.5960°W)
Time: 09:34:14
(UTC+00:00)

Cosmos 1892 Rocket - Pass Details

Date: 24 January 2021
Orbit: 607 x 632 km, 82.5° (Epoch: 02 March)

Event Time Altitude Azimuth Distance (km) Brightness Sun altitude
Rises 22:52:14 0° 184° (S) 2,857 7.3 -4.1°
Reaches altitude 10° 22:54:26 10° 183° (S) 1,955 6.5 -4.5°
Maximum altitude 22:58:46 82° 98° (E) 619 3.5 -5.3°
Drops below altitude 10° 23:03:07 10° 10° (N) 1,966 5.9 -6.0°
Sets 23:05:20 0° 9° (N) 2,874 6.7 -6.4°
